Theta_e
339 338 340 345 345 345 345 345 344 343 342 342 342 343 343 343 342 341 344 343 343 341 341 342 343 341 340 341 341 343 343 343 343 344 345 345 345 345 346 345 345 346 346 345 345 345 346 346 345 346 346 347 347 347 347 346 346 346 345 345 344 343 343 343 342 342 342 342 341 340 340 341 342 341 338 336 335 334 335 333 333 329 329 330 333
337 339 341 345 345 345 345 345 344 343 344 345 343 342 342 341 341 341 341 340 339 340 340 340 341 342 342 341 342 341 343 343 344 344 344 344 343 344 344 344 344 345 345 344 345 345 345 345 345 346 347 347 346 346 346 345 345 344 343 343 342 342 341 340 340 340 340 341 340 338 336 336 337 339 339 337 335 337 337 336 336 333 333 334 334
338 339 341 345 346 345 345 344 343 342 344 346 343 343 342 342 341 341 340 342 344 343 343 343 342 341 341 340 341 341 341 341 341 341 341 342 342 342 343 342 344 343 344 344 344 344 345 345 346 346 346 346 346 345 345 345 343 343 341 340 339 339 339 338 338 338 338 338 338 337 335 336 335 336 336 337 335 336 336 336 337 336 333 335 334
336 338 341 344 346 346 346 343 342 346 346 346 346 346 345 343 342 339 345 345 344 344 342 342 342 342 342 342 340 340 340 340 341 342 344 343 343 343 343 343 343 343 343 344 344 344 344 345 346 346 345 345 345 345 344 343 342 342 340 339 338 338 338 337 337 337 337 338 336 335 334 333 333 334 335 337 336 335 334 335 335 335 335 335 335
337 339 341 342 346 347 345 343 342 345 347 347 347 346 346 345 346 343 345 342 340 340 342 342 341 341 342 342 342 340 341 340 341 342 342 342 341 343 343 343 343 344 344 344 344 344 344 345 346 346 345 344 344 343 343 342 342 341 339 338 338 337 337 336 336 335 335 336 335 335 333 332 332 333 337 340 338 336 334 334 334 334 334 333 333
337 339 340 343 343 345 345 344 343 345 346 346 346 346 345 346 346 345 343 341 340 340 341 341 341 340 340 341 342 340 338 341 342 342 342 342 342 342 342 342 343 343 343 343 344 343 344 344 344 345 345 344 342 342 342 342 341 340 339 338 337 336 335 335 335 335 335 335 335 332 331 332 332 333 336 337 337 335 332 332 332 332 331 332 332
339 340 341 342 344 344 344 343 341 344 346 345 346 345 345 346 345 344 342 341 339 339 338 338 341 341 339 339 340 341 340 340 342 343 343 343 343 342 342 343 343 342 342 343 343 343 343 343 343 344 344 343 343 342 342 340 338 338 338 337 336 335 335 334 334 335 336 334 333 332 330 331 333 333 337 336 334 332 330 332 332 331 331 331 332
340 341 342 343 344 344 344 344 342 343 346 346 345 344 344 344 343 341 339 338 339 341 341 340 338 338 339 339 340 341 340 339 340 342 341 341 341 344 344 344 343 342 343 344 344 343 343 343 343 343 344 342 341 341 340 338 337 337 337 336 336 335 334 333 333 335 335 332 333 331 331 331 332 332 334 332 331 331 333 333 332 331 331 331 331
338 339 341 342 344 342 343 342 341 343 347 346 345 344 342 342 341 340 339 337 337 337 339 338 338 339 339 341 341 341 342 341 341 342 342 342 341 343 343 344 344 344 344 344 344 344 343 342 343 343 343 343 341 340 340 338 337 336 336 336 335 334 333 332 333 334 332 332 331 331 332 331 331 331 332 331 332 334 334 332 332 331 330 332 331
337 339 341 343 344 341 344 342 342 340 344 345 343 342 342 342 340 339 339 340 339 340 341 341 343 344 344 344 344 344 344 343 342 342 341 342 343 343 344 343 344 344 344 343 343 343 343 343 342 342 341 340 341 340 338 337 336 336 335 335 334 333 332 332 333 331 330 330 329 329 331 333 329 330 331 333 333 333 332 332 331 330 330 331 331
337 339 342 343 346 341 345 345 343 343 339 341 342 341 340 340 339 338 338 341 341 341 343 344 344 343 344 343 343 342 341 341 341 341 341 341 341 341 341 342 341 342 341 342 342 342 343 343 342 341 341 341 339 337 336 335 335 335 335 334 333 332 332 333 332 330 330 329 330 330 330 334 329 332 335 334 332 332 332 331 331 329 331 332 332
336 339 342 342 345 340 344 344 343 340 339 340 341 340 339 341 340 339 339 341 344 344 343 344 343 342 341 341 341 341 341 340 340 340 341 341 341 341 341 341 341 341 341 341 341 341 341 342 341 341 340 339 337 336 335 334 333 334 334 333 332 331 331 332 331 331 331 330 330 330 329 328 328 329 332 333 330 331 330 329 328 331 331 331 329
336 338 340 344 345 340 342 344 343 342 341 338 338 338 338 342 343 343 344 344 343 342 341 340 340 340 339 340 340 340 340 340 339 339 340 340 340 340 340 340 340 340 340 340 340 340 340 340 341 340 339 337 336 335 334 333 333 333 332 332 331 330 329 330 330 331 331 331 330 331 330 329 329 332 330 331 329 333 332 329 327 328 329 328 329
335 337 340 342 343 345 338 340 342 343 342 341 341 338 337 344 344 344 343 342 341 340 339 338 338 338 338 339 339 340 340 340 340 340 340 339 339 339 339 339 340 339 339 339 339 339 339 339 339 339 338 336 335 334 334 333 332 332 332 331 330 330 329 329 330 331 331 331 330 331 330 328 328 332 332 331 332 333 330 328 326 329 328 329 331
335 338 340 341 343 345 341 338 341 340 340 341 341 339 337 344 344 343 343 341 340 338 338 339 338 339 340 340 340 339 339 339 339 339 339 339 338 338 339 339 338 338 339 339 339 339 339 339 338 338 337 335 335 334 334 333 333 332 331 330 329 329 326 328 330 330 330 330 330 330 331 330 329 332 332 332 332 330 331 328 330 329 328 329 327
337 338 340 340 342 344 345 342 335 335 338 339 339 340 341 342 343 343 342 340 339 337 338 339 339 339 339 339 339 339 339 338 339 339 341 339 338 338 338 338 338 338 338 338 338 338 338 338 337 336 336 335 335 334 334 333 332 331 330 329 328 327 324 326 330 330 329 329 329 330 330 329 330 330 330 331 331 330 328 328 330 329 328 329 327
334 338 338 339 342 341 343 344 339 331 332 334 335 336 339 341 340 342 343 343 342 342 344 339 339 341 342 343 343 340 340 341 340 340 341 340 338 339 338 338 338 338 338 338 338 337 337 338 337 337 336 335 335 334 334 333 331 330 329 328 326 326 324 324 329 329 328 329 329 330 329 331 331 330 330 330 331 331 329 329 329 328 326 328 326
335 336 335 338 340 341 341 343 344 341 341 336 331 334 337 340 340 342 343 342 343 343 342 343 342 341 340 340 340 340 339 339 339 339 338 339 338 338 339 337 338 338 338 337 337 336 336 336 336 337 337 336 335 334 333 331 330 329 327 326 326 323 324 324 329 329 329 330 329 330 331 333 331 330 329 329 330 331 329 329 329 326 326 326 325
334 333 334 337 338 340 341 342 342 343 341 340 339 340 332 336 338 339 339 339 339 338 338 338 337 337 336 335 335 333 333 333 334 335 335 335 335 334 336 337 337 337 337 337 336 334 334 334 334 335 335 335 334 333 331 330 328 327 326 325 321 321 320 325 328 328 328 328 329 330 329 333 332 330 330 331 329 328 327 328 328 325 325 326 324
333 333 332 335 338 337 340 341 341 341 341 341 340 339 333 331 334 335 335 335 336 335 334 333 331 331 330 331 330 334 331 334 328 334 330 332 330 332 333 336 337 336 336 336 336 334 333 333 333 332 331 331 331 330 329 328 327 325 324 322 322 318 327 327 328 328 327 326 328 329 329 332 332 330 330 330 329 330 327 327 326 325 324 327 325
330 331 332 333 337 337 338 339 340 340 341 341 340 340 341 330 331 330 330 332 332 331 329 325 324 323 326 325 329 337 338 337 337 337 330 336 324 326 331 335 337 335 335 335 335 335 333 333 332 331 330 328 326 325 326 326 326 324 322 321 317 328 328 328 328 328 328 327 328 328 330 331 331 331 332 331 330 329 328 326 326 325 325 326 324
327 328 330 332 334 336 337 337 338 340 340 340 340 340 341 335 339 339 339 334 329 328 335 340 336 338 324 334 337 336 335 336 336 336 336 336 333 324 328 333 335 334 335 334 335 334 333 332 331 330 328 326 324 332 329 323 322 323 321 317 329 328 328 328 328 328 328 328 328 327 330 330 330 332 332 333 332 328 327 326 326 325 324 324 324
327 328 329 330 333 334 336 335 337 338 339 338 339 338 338 338 339 339 339 332 336 338 338 338 339 338 338 337 333 335 335 335 336 335 336 321 330 323 325 327 328 329 331 331 332 331 331 330 328 327 326 325 332 332 332 332 332 318 318 330 328 328 328 328 328 328 328 327 329 326 327 329 330 331 332 332 333 329 327 326 326 326 325 324 324
327 328 329 331 331 332 335 336 336 337 337 337 338 337 337 337 337 337 337 336 337 337 337 338 338 338 337 336 334 336 336 335 329 327 332 335 332 320 319 321 322 321 324 330 326 326 326 325 324 324 328 328 331 330 331 331 330 331 331 329 329 329 329 328 327 328 328 328 329 324 326 328 330 330 331 332 331 331 329 330 328 328 327 326 325
329 330 330 329 330 331 332 335 336 337 337 336 336 335 336 335 335 336 336 334 335 335 335 336 336 337 337 335 336 336 336 335 335 335 334 334 334 334 334 334 334 335 324 334 333 334 331 333 332 329 331 331 330 330 331 330 330 330 329 329 329 330 329 328 327 327 328 328 328 321 323 326 328 330 332 332 331 331 330 330 330 331 331 330 328
330 328 328 329 330 331 332 332 335 336 336 336 335 335 335 334 334 334 335 335 335 334 334 335 335 336 335 335 335 335 335 333 334 333 333 333 333 332 332 333 333 332 331 332 331 331 332 331 331 330 330 330 330 330 329 328 329 329 329 329 329 329 329 328 328 328 328 328 328 320 322 325 327 329 329 331 331 332 331 331 332 331 331 331 330
329 328 329 329 330 331 331 331 331 333 335 336 335 334 333 333 333 333 333 334 334 334 333 333 334 334 335 335 333 332 332 331 331 332 332 331 331 331 331 331 331 331 330 330 330 329 330 330 330 331 330 330 330 330 329 329 329 329 329 329 328 328 328 328 328 328 329 328 326 319 321 324 326 327 328 330 331 331 331 331 332 332 331 331 330
329 329 329 329 330 330 330 330 331 331 333 334 333 333 333 332 332 333 333 331 333 333 333 333 334 333 334 332 331 333 332 331 331 330 330 331 330 331 330 330 330 330 330 330 330 329 328 329 330 331 330 329 327 328 327 328 328 328 328 328 328 327 327 326 327 328 328 328 328 324 320 321 323 325 329 330 331 331 332 332 331 333 332 331 331
329 329 330 329 330 330 330 330 330 330 330 330 330 330 331 330 331 332 332 330 333 334 334 334 333 332 333 334 333 332 332 332 331 330 330 330 330 330 329 330 330 330 330 329 329 328 327 328 329 330 328 326 327 327 327 327 327 327 326 327 327 326 327 327 327 327 327 327 327 325 319 320 321 324 327 329 330 331 331 331 332 332 332 332 332
330 331 331 330 331 330 329 329 330 330 331 331 330 330 330 329 330 330 331 331 332 334 335 333 333 333 332 333 333 332 331 330 331 330 329 330 329 330 329 329 329 330 329 329 329 328 326 326 327 327 326 327 327 328 327 328 327 327 326 326 326 326 326 326 327 327 327 327 328 328 318 318 320 323 325 327 330 330 330 330 330 331 332 333 332
331 330 331 332 332 330 330 330 330 331 331 330 331 330 330 330 330 331 330 330 332 333 333 333 333 333 332 333 333 333 332 332 331 331 331 331 330 330 329 329 329 330 330 330 330 329 328 327 327 327 328 328 328 328 327 328 328 328 327 326 326 326 326 327 326 327 326 327 328 328 329 319 319 321 323 325 327 328 329 329 330 331 331 332 332
330 330 332 333 333 331 330 330 330 330 329 330 331 330 330 330 332 331 330 330 331 331 332 333 331 332 334 334 332 332 331 331 332 332 331 331 332 331 330 329 330 331 331 330 330 330 330 330 330 330 330 329 328 328 329 327 328 328 328 327 327 327 326 327 326 327 327 328 328 328 328 327 320 319 320 321 323 324 325 326 327 329 330 331 332
332 332 332 333 332 332 331 331 331 330 329 329 330 330 331 331 331 331 332 331 330 330 331 332 332 333 334 333 332 332 331 331 331 332 331 332 331 331 330 331 331 332 331 331 332 331 330 330 330 330 329 329 328 329 330 328 327 327 328 327 327 327 328 327 327 327 327 328 328 327 328 327 327 320 318 318 320 320 322 323 324 325 327 328 329
331 333 333 332 333 333 332 332 332 330 329 330 330 330 330 330 330 331 331 331 330 330 330 332 332 332 332 333 333 333 331 331 332 332 332 331 332 331 332 331 332 333 332 331 330 330 330 330 330 328 325 327 327 328 327 326 326 327 327 327 327 327 327 327 326 327 327 327 327 327 326 326 325 326 326 319 318 318 319 320 322 323 323 324 325
332 332 332 333 333 333 333 332 331 332 330 329 330 331 331 331 330 331 331 331 331 331 332 333 332 332 333 332 332 332 332 331 332 332 332 332 331 331 331 332 333 333 331 330 330 330 330 329 328 327 326 326 326 326 326 326 326 326 326 327 326 327 327 327 327 328 327 327 326 326 326 325 324 324 324 323 316 315 316 317 319 320 320 321 322
331 332 333 333 333 333 333 333 333 331 331 330 330 331 331 331 330 327 331 331 331 331 332 333 333 333 332 332 333 333 332 332 332 332 332 332 331 331 331 333 333 331 330 330 329 328 328 329 329 328 324 324 325 325 325 324 325 325 327 327 327 326 326 327 327 327 327 326 326 326 325 324 324 322 318 322 322 318 313 314 316 317 317 318 320
332 332 332 332 332 333 332 332 332 332 332 331 331 331 332 331 331 330 330 331 330 331 332 333 333 333 333 332 333 332 332 332 332 332 331 332 331 331 332 334 333 331 329 329 328 328 328 328 328 328 328 324 324 324 324 324 324 325 326 326 327 327 326 326 327 326 326 325 325 324 324 323 322 315 322 320 321 320 314 312 314 314 313 314 317
332 332 332 332 332 333 332 332 333 333 332 332 332 331 332 332 332 332 331 330 331 332 333 333 333 333 332 332 333 333 332 332 333 332 331 332 332 332 332 332 331 330 328 328 328 329 329 328 327 328 327 326 324 323 323 324 325 326 325 326 326 326 326 326 327 321 324 324 324 323 322 322 322 321 320 320 320 319 319 316 312 313 310 312 314
331 331 331 332 332 332 332 332 331 332 333 333 333 332 332 333 333 333 332 330 331 332 333 333 333 333 332 333 333 333 331 333 333 332 331 331 331 332 332 332 331 330 329 328 328 329 329 328 327 327 328 327 325 325 325 325 325 325 324 325 325 326 326 326 325 324 323 323 322 320 323 322 321 320 320 319 318 318 318 318 318 318 317 310 312
330 331 331 331 331 331 331 332 331 332 333 333 333 332 332 331 330 332 330 329 330 329 332 333 335 334 333 333 333 333 332 332 332 332 331 331 331 331 331 332 331 330 329 328 327 327 327 326 327 327 326 326 325 325 326 325 324 324 323 324 325 325 325 325 324 323 322 322 322 322 321 321 320 320 319 319 318 318 317 317 314 316 316 314 311
329 330 330 330 330 330 330 329 330 331 330 331 331 331 329 330 330 330 329 330 329 330 330 331 332 334 335 334 333 332 332 332 332 332 330 328 330 330 331 331 331 329 328 328 329 328 328 328 327 327 326 325 325 326 326 325 322 321 323 323 324 326 325 322 321 322 322 321 321 321 320 320 320 319 319 319 318 317 317 316 316 315 315 315 314
327 328 329 329 330 330 329 329 330 331 330 331 331 331 332 331 330 330 331 331 330 328 328 329 330 332 333 334 334 332 332 332 330 331 331 331 330 330 331 331 330 329 329 329 329 326 330 328 328 325 327 324 324 326 325 323 320 318 317 317 319 321 321 320 320 321 321 321 321 320 320 320 319 318 318 318 317 316 316 315 314 314 314 314 314
327 327 329 329 329 330 330 330 331 330 331 331 332 331 333 333 333 333 332 331 333 332 331 331 331 331 332 332 333 332 332 332 331 331 331 331 331 332 332 331 330 330 328 328 329 328 328 327 328 324 324 325 324 326 324 323 319 319 317 314 315 315 318 319 319 321 321 320 320 320 319 319 317 318 318 316 315 315 315 313 313 313 313 313 312
325 326 327 328 328 329 330 331 331 332 332 331 329 333 334 334 334 334 334 333 331 332 332 332 332 332 331 333 333 333 333 332 332 331 331 331 332 331 332 331 331 331 330 328 328 327 328 328 328 326 325 322 322 322 323 323 321 318 313 314 315 314 311 315 316 320 319 320 320 318 319 318 318 317 317 315 314 314 313 313 312 312 312 312 312
325 326 326 327 328 329 330 331 331 331 332 331 331 333 333 333 334 334 334 334 334 331 329 329 331 331 331 332 332 333 332 331 332 332 330 331 332 332 332 332 332 331 330 328 327 328 329 329 328 327 325 323 322 323 322 322 321 322 319 313 314 312 312 314 315 316 318 318 318 318 318 316 316 316 315 314 314 313 311 311 312 311 312 311 311
325 326 328 328 329 329 330 331 332 332 332 333 333 332 331 331 330 328 326 326 326 326 325 326 328 329 329 331 332 332 333 332 333 334 332 330 331 332 332 332 332 331 330 328 328 328 328 328 328 327 325 325 323 322 320 316 317 317 317 319 318 314 313 313 312 309 318 319 318 317 317 317 316 315 314 313 312 311 310 310 311 310 310 310 310
324 327 328 328 329 329 330 331 331 332 333 332 333 331 331 330 330 329 329 327 327 327 328 330 330 330 331 330 330 331 332 331 331 332 332 331 332 332 331 330 330 330 330 329 327 327 328 328 329 327 326 325 323 319 319 320 314 314 314 315 316 316 317 313 310 311 308 314 317 316 316 316 316 314 313 312 311 310 309 309 309 310 309 310 309
323 325 327 328 328 329 329 330 331 330 332 332 332 331 330 330 329 329 328 328 328 328 329 329 331 330 329 329 329 329 330 332 331 330 331 331 330 331 332 331 330 331 330 330 328 327 327 328 328 327 326 324 321 319 320 319 315 316 314 314 315 315 314 315 315 312 309 307 309 315 316 315 314 313 312 310 309 308 308 308 309 309 309 309 306
321 323 325 327 328 329 329 330 330 330 330 331 330 330 329 330 329 329 328 328 329 329 330 329 329 329 328 328 328 329 329 331 331 331 330 330 328 329 331 331 331 330 329 330 329 329 328 327 324 323 322 321 321 321 321 319 318 317 313 314 315 313 312 313 313 313 309 306 307 309 309 312 312 312 310 310 308 308 308 308 308 309 309 307 304
317 321 323 325 326 327 327 327 328 329 329 330 329 330 330 328 328 328 327 328 328 329 330 329 329 329 326 327 327 328 328 328 329 330 330 330 330 329 329 330 331 331 329 330 329 327 326 326 324 322 321 320 321 320 321 321 319 320 318 317 314 311 310 309 309 309 309 310 306 307 307 306 304 307 309 307 306 307 308 307 308 309 308 305 302
313 315 317 320 323 325 326 326 327 328 328 328 328 328 329 328 328 328 327 327 328 328 327 327 328 327 325 326 327 328 328 327 328 327 328 329 330 329 328 328 329 327 326 327 327 325 324 323 323 323 322 322 320 320 320 320 319 318 318 317 315 314 313 311 308 308 308 306 305 304 305 306 305 304 307 306 306 306 307 308 307 308 307 302 300
Wind_Speed
6 8 8 6 9 7 9 8 8 8 8 9 9 10 10 11 10 10 14 14 14 13 12 14 13 12 12 12 12 13 13 12 13 14 14 15 15 16 16 17 17 18 18 18 18 18 18 17 17 18 18 19 20 20 21 21 21 21 20 21 20 20 20 19 19 19 19 21 22 20 19 19 19 20 20 20 18 16 12 13 12 13 12 14 17
10 8 7 8 7 8 9 9 9 8 9 10 10 10 10 10 10 10 12 12 11 12 13 13 12 13 14 13 12 13 13 13 14 14 13 14 14 14 15 16 16 17 17 17 17 17 18 17 17 18 18 19 20 20 20 20 20 20 20 20 20 19 19 19 18 17 17 17 20 20 20 20 20 19 19 18 18 19 16 19 19 13 12 17 18
10 9 8 8 6 7 8 9 9 9 11 11 11 11 11 11 11 11 11 13 14 14 14 13 12 13 13 12 13 13 13 14 14 13 13 14 14 14 15 16 16 17 16 17 17 17 17 17 17 18 19 19 19 19 19 20 20 20 19 19 19 19 18 17 16 15 13 12 14 16 18 20 20 19 19 18 19 20 17 19 18 16 13 19 17
11 9 8 8 5 4 6 8 9 13 10 10 10 10 8 9 11 11 15 14 13 13 12 12 13 14 13 12 13 13 13 14 14 15 16 16 15 15 16 16 16 16 16 17 17 18 17 18 18 18 19 19 19 19 19 19 19 18 18 18 18 17 17 16 15 14 12 10 10 11 10 12 15 18 18 18 19 20 16 18 18 19 18 17 19
10 9 8 9 10 6 7 7 9 10 10 10 11 10 9 9 9 13 14 13 11 12 13 13 12 12 12 13 14 13 11 13 13 14 15 15 14 15 15 16 16 17 17 18 17 17 17 18 18 18 19 19 18 19 19 19 18 17 17 17 16 16 16 14 13 12 9 9 10 11 11 13 12 17 19 20 20 17 16 16 16 16 16 18 18
9 8 8 9 10 9 5 6 10 11 10 11 13 13 12 12 12 13 14 13 12 12 12 11 11 12 12 11 12 12 12 13 13 15 15 15 15 15 15 15 16 17 16 17 17 17 17 17 18 18 18 18 18 18 18 18 17 16 16 16 16 15 14 13 11 8 5 7 10 9 11 12 13 12 19 19 18 15 17 17 17 16 16 15 17
10 7 7 9 8 8 4 7 10 11 12 12 11 12 13 14 13 12 13 14 13 11 10 10 13 13 12 11 13 13 12 12 14 14 15 14 15 14 14 15 15 16 16 16 16 17 16 16 16 17 17 18 18 17 17 16 16 16 15 15 15 15 14 12 9 8 7 9 8 9 10 13 12 9 18 17 15 14 14 18 17 15 17 17 17
8 7 8 8 8 8 3 7 8 11 12 11 11 12 12 12 13 12 11 11 12 12 13 11 11 11 11 11 13 12 12 13 13 13 14 14 14 14 15 14 16 16 16 17 16 16 16 16 16 16 18 18 17 17 16 15 15 15 15 14 14 13 11 9 7 6 8 10 9 9 10 11 12 10 14 14 14 15 18 18 16 18 18 16 12
8 8 8 8 9 7 3 7 7 12 13 12 11 11 11 11 11 10 10 11 11 9 11 10 10 11 12 13 12 13 13 13 13 13 13 13 13 15 16 16 15 16 16 16 16 16 16 16 16 17 17 17 16 16 15 15 14 14 14 14 13 12 10 8 7 3 9 9 11 10 10 11 10 9 12 13 18 18 18 15 14 16 16 14 16
8 8 7 7 9 5 3 5 8 9 13 13 10 11 12 12 11 9 9 11 9 9 10 10 10 11 12 13 13 12 12 13 13 12 12 14 14 15 15 16 16 15 16 16 15 16 16 16 16 16 16 16 15 15 14 14 13 13 13 12 12 10 8 6 5 11 9 10 11 12 10 9 10 10 11 17 17 18 16 14 13 12 12 16 16
8 8 7 8 10 5 5 4 8 8 10 11 11 11 11 11 11 9 10 10 9 9 10 12 11 12 12 13 13 13 12 13 12 13 13 13 14 15 15 15 15 15 15 15 15 16 16 16 16 16 16 15 14 13 13 13 13 12 12 11 11 10 8 7 6 8 10 10 10 9 9 7 11 10 14 15 15 15 14 13 12 11 16 18 15
8 7 7 8 8 5 5 4 8 9 7 9 12 10 10 11 10 9 9 10 10 9 10 11 12 12 12 12 12 12 12 12 12 13 13 13 14 14 14 14 14 14 14 14 15 15 15 15 15 15 14 14 13 13 13 13 12 12 11 11 10 9 8 8 8 7 9 10 10 10 10 10 12 12 15 14 9 8 15 15 12 14 16 17 14
8 7 7 8 9 6 5 4 7 8 7 7 8 9 8 11 10 9 10 9 11 10 9 10 10 10 11 11 11 11 11 12 12 12 13 13 12 13 13 13 13 14 14 14 14 14 14 14 14 14 13 13 12 12 12 12 12 11 11 10 9 8 8 9 7 8 8 9 10 10 9 10 11 12 9 12 5 15 17 14 10 9 15 12 16
9 8 7 8 8 6 5 4 7 6 8 7 7 8 7 12 10 9 9 9 9 8 9 9 9 9 9 10 10 11 11 11 11 11 11 12 12 12 13 13 13 13 13 13 13 13 13 13 13 13 12 12 12 12 12 11 11 11 10 10 9 8 6 6 8 8 8 9 9 10 9 8 7 12 16 12 15 20 14 11 9 13 14 15 16
8 8 7 7 8 8 5 5 6 7 8 8 8 7 7 11 10 9 10 10 8 8 10 10 9 10 10 9 10 11 11 11 10 10 10 10 12 12 12 13 13 13 13 13 12 12 12 12 12 12 11 11 11 11 11 11 10 10 10 9 9 8 11 6 5 7 7 7 8 9 9 8 10 16 11 12 12 12 14 11 13 12 14 14 13
9 8 7 7 7 8 8 5 6 6 7 8 8 7 7 9 7 9 10 9 9 8 9 10 10 9 9 9 10 10 11 10 10 8 7 9 10 11 12 12 12 12 12 12 12 12 11 11 11 10 10 10 10 10 10 10 9 9 9 9 8 8 9 7 6 6 6 7 8 8 8 7 11 13 13 12 12 12 11 10 13 14 14 12 12
9 8 8 7 7 8 9 9 6 7 6 8 8 7 7 9 9 6 5 7 10 11 8 9 10 10 10 11 10 9 10 10 10 10 9 9 9 9 10 11 11 11 11 12 12 11 11 11 10 10 9 9 10 10 10 9 9 8 8 7 7 6 7 8 6 6 6 7 7 6 6 7 9 12 12 12 12 12 9 12 12 11 10 12 8
8 9 8 7 7 7 8 10 8 8 7 7 7 8 7 10 9 8 9 9 9 10 10 11 11 10 9 9 8 9 9 10 9 9 9 9 8 7 9 11 11 11 11 11 12 11 11 10 10 10 9 9 9 10 10 9 9 8 7 7 6 6 5 7 5 5 5 5 7 6 6 9 7 10 11 11 10 12 11 13 11 8 9 10 7
8 9 8 8 8 7 7 8 9 8 8 7 7 6 8 9 10 10 9 9 10 10 11 10 10 9 8 9 9 9 10 9 9 9 9 8 8 7 7 8 10 11 11 12 11 10 10 10 10 10 10 10 10 10 9 9 8 8 7 6 4 4 4 2 5 4 4 5 5 6 6 11 9 8 10 10 10 8 8 9 9 7 7 6 6
7 8 8 8 8 8 7 7 8 8 8 7 7 8 7 10 10 10 9 9 10 10 10 10 10 10 9 9 9 9 8 7 7 8 9 9 9 8 8 7 9 9 10 10 11 10 10 10 10 10 10 10 10 9 9 8 7 7 6 5 4 8 0 4 3 4 4 4 4 5 8 10 10 6 8 8 8 11 7 8 6 6 6 7 4
6 8 7 8 8 8 8 7 8 8 8 7 7 7 6 9 8 10 10 10 10 10 10 10 9 8 8 7 7 6 6 6 6 6 6 7 8 9 9 10 8 9 9 9 10 11 9 10 10 10 9 7 7 7 7 7 6 5 5 4 7 1 4 3 3 4 4 4 4 5 8 10 12 9 9 8 6 6 5 5 6 5 6 5 4
7 8 8 9 9 9 9 8 6 9 8 7 5 5 5 7 8 8 8 8 8 10 9 8 8 7 6 6 5 5 5 5 5 5 5 6 7 8 9 9 10 10 10 9 10 10 9 9 9 8 7 5 1 2 4 5 4 3 2 4 3 3 2 2 3 3 3 4 4 6 8 11 11 12 9 10 8 4 4 3 3 4 4 5 5
7 7 7 10 9 9 9 8 8 8 7 7 5 6 7 6 7 7 6 7 8 8 7 8 7 7 6 5 4 4 4 4 3 4 4 8 7 7 7 9 9 9 9 9 8 8 7 8 7 6 4 2 1 2 2 1 2 6 6 3 2 2 2 2 2 2 2 4 3 6 8 10 11 12 10 9 10 6 3 4 5 5 5 5 5
8 7 7 7 9 9 10 9 9 9 8 7 6 6 6 6 6 7 6 7 7 7 7 7 7 7 6 5 4 4 4 4 6 6 6 5 5 6 6 7 7 7 4 5 7 7 7 7 5 1 2 1 2 1 1 1 2 2 2 2 2 2 2 2 2 2 2 2 2 5 6 9 11 11 10 11 10 9 8 10 8 8 6 5 7
7 6 6 8 10 10 10 10 10 8 9 7 7 6 7 6 6 6 6 7 8 7 7 6 6 6 6 5 4 4 3 3 4 4 3 3 3 3 3 2 2 2 2 0 1 2 4 1 2 1 1 1 1 2 2 1 1 2 2 3 2 2 2 2 2 3 3 2 2 3 5 8 10 11 10 11 11 11 9 9 9 11 11 10 10
6 7 7 7 9 9 9 9 10 9 9 8 7 5 5 6 7 7 7 6 7 7 6 6 6 6 5 5 4 4 3 3 4 4 3 3 3 2 2 1 1 1 0 0 0 1 2 2 1 1 0 0 1 1 1 2 2 2 2 2 3 2 2 2 2 3 3 3 2 2 4 6 8 10 11 11 12 13 13 13 13 11 11 10 10
7 7 6 6 8 9 9 9 10 10 10 8 7 6 7 7 7 7 7 7 6 6 6 6 6 6 5 5 5 4 4 4 4 4 3 3 3 2 2 2 1 1 0 0 0 1 2 1 1 1 0 0 1 0 0 1 1 2 2 2 2 3 3 2 3 3 4 4 3 2 4 6 8 9 10 11 11 12 13 14 14 14 13 13 12
8 8 7 7 8 10 10 10 9 10 10 10 9 7 7 7 7 6 7 6 6 6 6 6 5 6 6 6 5 5 5 4 5 4 4 3 3 2 2 2 2 1 1 1 1 2 2 2 2 1 1 1 2 2 2 2 2 2 2 2 3 3 3 3 3 3 4 4 4 3 3 4 6 8 9 11 11 12 13 14 15 15 15 14 14
10 10 8 7 8 9 10 11 9 10 9 10 10 8 8 8 8 8 8 6 7 6 6 5 5 6 6 6 6 5 4 4 4 4 4 4 3 3 2 2 2 2 2 2 2 2 3 3 3 2 2 2 2 2 2 2 3 2 2 2 3 3 3 3 3 3 4 4 4 1 4 4 6 8 9 10 11 12 13 14 15 16 16 16 16
13 11 10 8 8 10 11 11 10 9 9 8 8 8 8 9 8 8 8 7 7 6 5 5 6 5 5 6 6 6 5 5 4 4 4 4 4 4 3 3 3 2 3 3 2 2 2 3 2 3 2 2 3 1 2 2 2 2 2 2 2 3 3 3 4 4 4 4 4 4 6 5 5 7 8 9 11 12 13 14 15 15 17 17 17
13 13 12 11 9 9 10 10 10 9 8 9 8 8 9 9 8 7 7 8 7 6 6 6 6 5 5 6 6 6 5 5 5 5 5 4 4 4 4 3 3 3 3 3 2 3 2 2 2 2 2 2 2 2 3 3 2 2 2 3 2 3 3 3 3 4 5 5 5 5 5 5 5 6 8 9 10 12 13 14 15 15 16 17 17
14 14 12 11 11 11 11 11 11 10 10 9 8 7 8 8 8 7 7 7 8 6 6 6 6 5 5 5 6 6 6 5 5 5 5 5 4 4 4 4 4 3 3 3 3 3 3 2 2 2 3 3 3 3 2 3 3 3 3 3 3 3 3 3 3 4 4 5 5 5 5 5 3 5 6 7 9 11 12 13 13 14 14 15 15
13 14 13 13 13 13 11 11 11 11 12 11 9 8 7 7 7 7 6 7 7 6 6 6 6 5 5 6 6 7 6 6 6 6 6 5 5 5 5 5 4 4 4 4 4 3 4 4 4 3 3 4 4 4 3 3 4 4 3 3 3 3 3 3 4 4 4 4 4 4 5 5 6 4 5 3 5 8 10 11 11 12 13 14 14
13 12 15 16 13 10 10 10 11 11 12 10 9 8 7 7 6 6 6 7 7 7 7 6 6 5 6 6 7 7 7 6 6 6 6 6 6 6 6 5 5 4 4 4 4 4 4 4 4 3 3 4 6 5 3 4 5 5 4 2 3 4 5 4 4 4 4 4 4 4 4 4 4 4 5 3 1 3 8 10 10 11 12 13 13
13 13 16 17 15 13 10 10 12 14 13 12 11 9 8 7 7 6 7 8 7 7 7 7 6 6 6 6 7 7 8 8 7 6 6 6 7 7 6 6 5 4 4 4 4 5 4 5 4 4 7 7 7 6 5 6 6 6 6 5 5 4 4 5 4 4 4 4 4 3 3 3 3 3 4 4 3 6 6 8 10 10 10 11 11
17 15 14 15 17 16 14 13 13 15 14 14 12 10 9 8 7 7 6 8 7 7 7 7 7 7 7 7 8 8 8 8 8 7 6 6 6 6 6 6 5 4 4 4 4 5 4 4 5 6 7 6 6 6 6 6 6 7 5 6 5 5 6 6 6 5 4 3 3 3 3 2 2 3 3 3 3 4 4 6 8 8 9 11 12
18 17 16 16 17 17 14 15 15 15 15 14 14 13 11 11 10 9 8 8 8 7 7 7 7 7 7 7 8 8 8 8 8 8 7 7 6 6 6 5 4 4 4 4 4 5 4 4 5 3 5 7 7 7 7 6 6 6 6 6 5 5 5 5 5 5 3 3 2 2 1 2 2 1 2 3 3 3 4 0 4 3 5 9 10
16 17 17 17 17 16 15 14 14 14 13 14 13 12 11 11 9 9 9 10 11 8 7 7 7 7 7 7 8 8 8 9 9 8 8 7 7 6 6 5 5 4 4 5 5 4 4 4 7 7 6 6 8 7 6 5 4 5 6 6 6 5 5 5 4 4 3 2 1 2 2 2 3 3 3 3 3 3 3 1 5 5 4 7 8
14 17 17 16 15 15 14 12 12 15 14 13 13 12 12 11 10 11 11 11 10 10 9 8 7 6 7 8 8 8 8 9 9 9 8 7 7 7 7 7 6 5 6 6 6 5 5 5 6 7 6 5 6 6 6 5 6 7 7 7 7 6 5 4 3 3 2 1 1 1 1 3 2 3 3 2 3 3 4 5 5 5 4 6 7
15 15 17 17 17 16 14 12 14 16 15 13 12 11 11 10 12 11 11 11 10 9 10 10 10 10 8 7 8 8 8 8 9 9 8 7 7 7 7 5 5 5 6 6 6 7 7 7 7 7 7 5 4 5 5 5 7 7 7 6 5 5 5 3 2 2 1 1 1 1 2 2 2 3 3 3 4 4 5 5 5 5 5 5 5
17 17 17 18 18 17 15 17 15 15 14 13 13 10 11 11 12 13 13 12 10 9 9 10 10 10 11 10 8 8 8 9 9 8 8 8 7 6 7 7 6 6 6 7 9 10 9 7 6 5 6 8 7 6 5 3 6 6 5 4 5 4 2 2 1 1 1 1 1 2 2 2 2 3 3 3 3 4 5 5 5 5 5 5 4
17 18 19 19 19 19 18 16 14 14 15 14 12 12 13 12 12 12 10 9 9 11 10 9 9 8 11 11 10 8 9 8 8 9 9 9 8 8 8 7 7 6 6 7 8 7 4 5 6 8 5 7 7 5 3 3 5 5 4 3 4 2 2 1 3 2 1 2 2 2 2 3 3 3 4 5 4 5 5 5 5 5 5 5 5
16 18 19 19 18 18 18 16 14 15 14 14 13 13 13 13 14 12 12 11 11 9 9 9 9 10 11 12 11 8 10 9 9 9 8 8 8 8 7 7 8 7 7 8 11 10 7 7 8 8 7 6 6 5 4 5 4 1 1 2 4 2 4 3 3 1 2 3 3 2 3 2 3 3 4 4 4 4 4 5 5 5 5 5 5
16 17 18 19 17 17 18 19 18 16 15 15 13 15 15 15 15 14 14 14 11 10 11 11 11 12 12 11 12 12 11 10 9 9 8 9 10 10 8 9 10 9 8 10 11 11 10 10 8 7 8 8 6 5 5 6 5 3 3 4 1 2 5 5 4 2 2 2 0 2 2 2 1 2 4 4 4 4 4 4 5 5 5 5 6
16 16 17 17 15 20 20 20 18 18 17 15 16 15 14 13 12 11 11 9 9 11 11 12 11 11 10 12 13 12 12 11 10 11 10 11 12 10 10 11 12 9 7 10 10 11 11 11 10 7 9 8 8 5 4 4 6 5 4 2 4 4 3 2 2 5 4 3 2 1 2 2 2 3 3 3 3 3 4 4 5 5 5 6 6
15 16 16 17 17 16 18 18 15 15 16 18 19 16 15 14 12 13 15 16 16 14 16 14 11 13 13 9 9 11 11 11 11 12 10 10 12 13 11 11 9 10 10 9 10 10 11 11 10 9 9 10 8 5 5 3 5 5 5 4 4 4 3 2 3 3 2 4 2 3 2 1 2 3 2 3 4 3 3 3 4 5 5 6 6
18 15 14 16 19 17 16 17 16 14 15 16 18 15 17 15 17 16 15 16 17 13 11 10 11 10 8 11 10 10 12 12 11 10 12 11 11 12 12 10 7 9 11 9 9 10 10 10 8 9 9 8 7 6 7 5 2 4 5 4 2 2 1 2 3 2 8 0 2 0 1 1 1 1 1 2 3 3 3 3 4 4 5 5 5
16 13 14 15 18 18 16 17 15 14 13 14 16 19 17 18 17 18 16 17 17 16 12 13 13 10 10 11 10 9 11 12 11 11 9 8 8 9 11 12 10 8 6 6 7 9 7 6 8 9 8 6 7 6 7 5 5 4 3 3 5 3 2 3 4 4 5 7 6 2 3 2 2 2 2 2 2 3 3 3 3 3 4 5 5
10 13 15 13 13 13 14 13 14 13 13 16 18 20 19 16 18 16 16 15 16 15 12 11 11 11 12 10 10 10 10 12 12 11 12 12 9 9 11 12 11 11 7 8 9 10 9 9 8 7 7 6 6 7 6 6 6 5 5 4 4 4 4 3 4 3 3 4 6 5 5 5 2 4 2 3 3 2 2 3 3 4 4 4 4
12 11 10 9 10 10 12 15 16 14 14 17 19 19 21 17 18 19 20 17 14 11 12 14 13 10 13 11 10 10 10 10 11 11 12 12 11 11 9 10 11 11 10 10 9 9 7 8 8 7 7 7 6 7 7 5 6 6 6 6 6 5 4 3 3 5 3 4 5 4 4 6 5 2 3 4 5 3 3 3 3 4 4 4 4
7 9 11 11 12 12 14 16 18 14 15 17 19 20 19 19 19 20 21 21 17 15 15 15 14 11 12 12 11 11 10 10 9 9 10 10 11 10 8 9 7 6 7 9 9 8 7 6 6 9 9 9 7 7 7 6 6 6 7 7 6 6 5 6 7 6 5 4 4 5 5 4 5 6 1 6 5 3 3 3 3 4 4 4 5
Wind_Direction
143 141 131 101 142 143 115 122 113 108 108 105 91 79 82 81 79 69 76 77 76 82 83 83 83 84 83 87 90 90 87 84 86 81 77 74 74 75 76 78 77 76 75 76 78 79 79 77 76 74 75 73 72 69 68 66 66 65 64 63 63 62 60 59 58 59 60 65 66 64 61 63 64 63 58 58 60 61 56 48 64 63 60 56 50
147 140 136 121 120 126 126 122 117 117 105 96 87 85 88 94 93 86 80 83 89 84 82 81 85 92 85 82 82 90 97 95 93 94 89 84 82 81 81 80 80 77 77 77 78 79 80 79 79 74 75 74 72 71 70 70 69 69 66 66 66 65 63 61 58 59 64 70 74 69 60 58 59 62 63 58 59 55 52 52 48 55 56 55 51
134 140 132 106 120 132 133 118 121 120 112 102 99 94 91 89 90 93 96 85 81 84 84 84 87 84 88 88 90 86 82 86 85 83 86 83 82 85 86 84 81 83 82 81 80 80 80 79 77 75 75 74 73 73 73 72 72 69 69 68 66 65 64 62 60 55 51 58 74 75 70 63 59 59 61 62 60 56 52 53 54 55 56 55 59
134 135 132 120 131 146 136 123 120 99 108 105 95 94 93 99 98 100 91 92 90 94 100 100 95 92 93 95 90 86 86 91 89 88 86 86 85 85 87 87 87 86 85 83 80 79 81 81 80 77 76 75 75 74 74 73 72 69 69 68 67 67 67 66 62 58 48 37 60 69 64 62 65 65 61 62 63 62 57 54 52 56 59 55 53
131 132 133 138 142 150 119 124 122 103 101 107 107 101 110 113 98 99 95 98 101 94 85 86 87 84 84 89 91 91 93 95 96 96 89 87 87 85 86 89 88 86 85 83 81 81 81 80 80 77 74 74 74 73 73 73 71 71 71 70 69 69 68 65 62 57 47 49 55 65 67 64 65 58 60 61 59 58 54 54 55 54 52 53 51
133 132 137 135 135 126 116 139 123 97 99 109 105 100 105 108 100 102 102 98 94 90 95 101 104 97 96 103 107 103 98 95 96 94 93 91 94 93 90 89 86 83 82 82 82 81 80 80 79 79 78 75 76 75 74 74 73 73 73 73 73 71 67 62 56 38 43 79 71 70 68 65 58 54 51 56 56 53 53 53 54 53 51 51 56
131 135 138 135 133 123 113 111 104 108 107 109 111 119 112 106 111 109 103 102 98 102 97 90 93 96 92 90 97 102 103 104 96 93 96 96 92 94 97 95 91 87 85 85 83 80 80 80 81 80 81 79 77 77 76 75 74 73 74 76 76 74 69 61 42 14 42 64 62 65 62 59 61 60 54 52 48 50 58 58 59 59 55 50 49
134 136 139 137 133 127 99 109 118 118 119 117 115 109 106 109 103 92 88 89 102 109 105 104 99 104 113 98 90 91 94 100 98 90 88 90 91 84 84 85 91 90 85 83 82 81 82 81 81 80 79 80 82 81 78 75 73 73 74 76 76 74 69 56 33 18 51 63 57 57 63 65 66 57 54 53 56 49 43 57 56 54 51 52 50
140 141 140 136 128 111 102 125 124 125 126 119 115 114 109 99 97 98 100 101 90 95 108 109 101 104 102 107 103 102 103 101 98 93 91 90 89 88 86 85 88 90 88 84 82 82 83 83 82 80 81 81 80 79 77 75 73 73 76 77 75 69 61 42 8 46 65 62 59 55 54 61 64 64 72 65 59 52 43 48 53 50 49 48 47
140 143 141 141 136 118 80 122 119 116 123 119 113 111 103 102 102 101 106 101 108 104 96 99 81 87 98 100 96 91 100 101 103 105 97 91 85 83 86 87 85 85 85 84 83 83 82 81 82 82 83 82 80 78 76 74 73 73 75 76 72 65 50 16 48 56 62 66 70 67 54 43 57 61 76 63 64 58 55 48 49 40 42 54 45
143 143 144 141 134 109 89 82 120 112 108 109 108 105 110 105 98 99 105 111 112 104 97 103 102 105 107 100 103 106 101 101 102 103 103 97 90 87 85 82 80 78 80 82 83 84 84 83 82 80 80 79 79 77 75 74 73 74 74 71 66 55 34 352 48 62 65 62 58 65 78 48 58 57 63 63 54 66 62 56 51 48 52 51 47
146 144 144 140 118 116 94 87 124 115 120 121 117 113 111 108 103 108 103 97 92 108 121 111 105 107 101 100 99 98 99 103 106 105 104 101 95 89 85 82 82 82 82 83 82 82 82 82 83 82 81 80 79 77 75 73 72 73 73 69 60 49 24 352 63 69 69 65 57 61 59 48 46 55 46 55 56 99 83 57 44 54 54 47 44
149 149 143 143 151 112 119 97 108 128 124 113 107 111 107 111 108 103 107 109 113 121 121 103 105 102 100 102 101 104 108 107 106 104 102 101 98 93 89 88 87 87 87 86 85 83 83 84 83 83 81 81 79 77 74 71 69 68 69 66 57 48 31 4 66 68 64 57 53 55 61 50 50 59 73 64 31 63 63 51 43 59 66 51 39
155 154 149 152 149 124 116 96 86 100 124 111 98 108 108 106 113 115 117 119 119 119 107 106 101 107 104 100 105 105 108 109 109 110 109 105 101 98 92 90 89 86 84 84 84 84 85 86 87 85 84 81 79 77 74 72 70 67 63 57 49 30 339 70 69 68 64 62 54 54 60 65 42 39 74 63 31 36 43 55 40 22 61 47 46
155 159 155 156 149 153 114 103 85 88 124 119 112 113 116 116 123 129 124 125 119 111 109 107 110 107 107 113 113 113 110 108 108 107 109 104 102 101 96 89 88 88 86 83 81 79 80 83 84 85 84 82 80 77 75 72 70 66 60 52 44 22 353 64 55 69 65 56 54 57 61 54 32 42 55 44 47 43 40 47 46 40 38 50 34
158 162 166 160 157 152 161 112 86 88 114 128 126 127 102 97 113 135 134 135 132 119 117 107 112 117 116 112 112 111 109 104 100 96 96 104 104 100 97 95 91 88 89 88 85 83 83 82 83 82 83 82 80 77 75 73 70 63 57 52 38 17 9 338 68 63 62 53 53 53 62 57 38 52 38 39 44 47 41 35 51 42 49 47 49
162 169 177 163 163 164 166 161 113 99 99 124 133 128 110 95 99 88 117 110 97 84 75 121 112 103 95 87 81 83 83 78 68 60 60 73 88 93 99 98 92 88 87 85 83 80 79 77 77 78 76 78 76 75 72 70 67 63 57 47 34 25 12 336 72 59 57 55 55 53 61 56 40 51 43 39 44 33 44 41 42 44 43 52 15
170 177 182 172 171 173 170 167 146 156 138 122 125 137 115 103 101 108 114 111 98 90 84 88 97 92 84 83 82 84 81 74 67 63 62 57 58 75 95 100 92 87 84 87 84 78 75 75 74 75 78 77 75 73 69 63 57 55 52 42 34 25 12 323 66 63 56 51 59 58 61 0 27 51 47 47 39 41 49 30 42 43 46 55 12
174 185 186 176 180 183 179 170 170 167 160 162 157 133 119 111 112 112 110 108 103 103 102 100 100 94 86 90 81 85 80 76 69 68 69 65 65 74 79 99 101 90 87 85 84 82 78 73 71 70 72 73 73 71 69 64 55 47 39 36 20 4 296 295 57 55 52 46 52 58 30 353 19 38 45 47 43 61 40 36 44 22 14 78 34
178 185 185 187 189 184 182 182 179 175 176 171 161 160 125 122 122 120 114 111 112 110 109 107 106 103 99 106 108 112 107 92 93 88 75 73 62 62 59 88 108 102 93 93 90 85 78 73 69 68 66 67 67 63 62 62 55 45 31 13 1 282 290 59 45 42 43 50 13 50 8 356 9 36 38 47 39 38 46 32 34 2 353 25 50
182 189 188 189 192 192 182 193 188 181 180 177 171 165 130 129 128 124 121 120 121 119 113 115 117 118 123 122 145 144 135 131 142 120 104 76 70 72 68 58 66 99 95 88 85 82 79 76 73 70 67 66 75 77 64 57 57 48 33 10 295 280 53 43 19 44 34 40 27 44 358 348 346 19 25 28 28 38 40 36 27 3 348 17 33
183 186 192 191 192 194 187 191 194 190 182 179 177 171 151 178 161 146 141 135 130 133 147 147 142 137 132 161 161 151 146 145 129 134 134 130 94 72 74 72 66 66 77 81 77 78 76 77 77 73 71 71 355 133 114 104 83 48 46 301 271 48 48 21 19 34 26 36 17 25 347 346 345 349 5 4 3 29 10 31 15 353 342 330 335
186 186 191 195 193 189 190 189 201 194 182 183 180 184 184 190 182 176 158 155 149 163 164 154 172 168 171 172 168 153 154 152 127 85 86 54 73 67 75 78 80 80 82 80 77 77 80 78 74 75 78 214 178 82 69 37 116 167 208 225 27 21 11 354 342 15 18 24 340 32 344 340 338 343 345 349 356 355 360 353 347 336 336 333 315
190 190 184 192 194 193 191 193 198 197 193 192 187 188 193 195 196 190 184 186 175 178 177 173 178 179 180 188 172 157 160 146 93 119 138 152 112 91 79 94 95 82 98 120 111 86 100 89 74 101 167 61 43 37 38 32 9 9 12 358 1 15 322 340 346 338 338 33 338 30 336 334 331 335 339 345 344 346 349 331 334 329 318 308 309
189 185 187 187 193 195 192 195 197 200 201 194 192 196 194 200 201 200 193 194 194 191 187 180 180 179 185 190 172 145 167 167 171 166 189 154 155 155 161 167 159 133 8 206 226 161 215 168 163 216 60 69 44 24 356 357 2 349 6 5 347 338 315 313 319 322 317 322 357 13 330 321 323 326 333 333 332 331 330 326 328 330 326 314 314
178 191 192 185 192 196 195 193 196 200 203 199 202 190 198 201 204 204 202 200 196 197 188 186 179 181 185 185 157 155 170 182 186 191 183 177 177 168 156 138 148 133 179 298 202 246 226 218 197 192 121 27 26 17 2 341 334 326 341 358 338 331 320 315 311 301 307 305 334 57 311 309 312 315 318 320 319 323 323 325 325 328 324 321 321
187 200 190 193 189 194 196 196 196 199 204 204 205 195 204 205 206 204 207 205 200 199 198 195 192 181 180 167 181 178 181 192 192 196 190 199 191 188 175 174 181 175 89 214 209 246 240 216 225 206 195 313 320 349 282 295 303 304 306 314 323 313 310 310 305 306 301 305 304 194 281 292 302 306 306 306 311 314 316 316 317 319 322 318 314
194 196 197 194 189 193 193 197 198 196 202 204 206 205 207 207 207 205 218 206 208 206 205 205 189 188 189 190 194 181 182 189 194 199 200 209 199 197 201 201 207 203 180 256 234 214 211 215 223 221 242 258 286 293 288 272 275 277 284 302 315 304 309 312 305 301 298 299 299 199 229 271 286 293 296 302 307 307 310 311 311 312 314 315 316
201 198 197 196 192 194 194 197 198 199 199 201 207 208 209 210 207 209 210 206 216 213 210 202 201 203 194 194 194 191 188 190 187 194 196 207 197 206 210 214 221 224 214 223 233 219 209 209 212 225 250 275 282 276 309 297 291 290 301 302 303 310 308 299 305 303 297 296 298 264 192 250 272 283 290 298 302 305 307 309 310 312 315 317 318
210 205 203 198 194 190 195 196 198 199 200 202 203 205 208 210 210 209 207 207 218 217 211 212 214 205 202 201 199 205 194 191 189 189 193 197 201 206 216 222 227 215 220 226 211 231 214 197 209 223 237 251 265 280 293 291 287 294 295 294 292 299 295 298 305 308 308 299 293 295 196 232 251 279 289 295 300 306 309 312 313 314 316 318 321
210 211 208 208 200 193 195 197 198 198 199 206 204 205 205 211 208 205 204 209 215 218 217 218 215 215 215 199 204 213 208 203 192 184 195 193 198 203 214 220 231 219 217 230 210 231 219 220 204 234 254 277 277 289 281 287 282 280 266 274 282 275 274 281 285 292 292 293 298 302 298 221 247 273 290 299 309 315 318 319 320 320 321 322 325
211 213 211 209 208 201 198 198 199 194 202 208 204 209 208 211 209 206 203 205 206 214 217 215 217 218 214 202 211 211 218 214 207 195 203 200 202 198 213 220 225 219 216 225 219 221 234 227 224 254 273 275 281 274 274 287 291 289 280 262 257 260 268 273 278 278 284 296 299 302 306 314 238 242 278 302 316 321 326 329 330 331 330 331 334
212 211 210 209 210 207 206 202 202 196 203 207 203 207 209 208 208 210 206 202 206 212 214 212 214 214 212 210 214 214 212 219 209 208 206 214 216 216 221 219 224 217 212 213 227 234 228 225 222 219 241 258 270 276 265 274 282 284 273 274 279 276 280 286 283 282 286 293 301 300 304 304 308 285 243 277 310 328 338 336 339 339 337 338 339
210 210 209 210 206 207 207 208 205 203 205 209 205 203 204 204 208 210 210 206 207 209 214 213 209 213 211 209 212 215 216 218 215 207 212 219 222 225 227 223 223 214 217 208 220 224 231 233 239 237 250 265 274 273 275 283 282 285 284 286 287 291 296 290 291 291 291 291 294 296 297 308 316 333 348 318 60 348 354 344 343 349 347 343 345
208 210 211 212 207 206 202 208 205 208 207 211 209 209 202 202 201 209 208 207 209 211 210 210 206 208 208 208 210 214 214 218 214 214 211 222 226 226 224 229 219 210 220 219 231 231 236 242 240 250 275 280 276 269 272 278 282 284 289 290 290 289 287 288 285 278 278 292 289 294 300 312 338 352 353 351 69 92 13 352 350 354 351 351 357
211 211 213 213 213 210 206 210 204 207 207 211 211 211 210 208 205 208 209 206 215 217 214 208 205 204 204 208 205 211 213 213 212 214 217 216 225 224 223 224 207 214 223 216 221 239 238 240 240 259 278 274 271 273 273 276 282 283 286 291 292 288 291 294 295 292 298 299 298 300 315 358 5 13 338 5 6 71 65 356 351 354 356 358 4
210 211 212 213 215 212 210 214 212 208 210 208 213 215 215 214 213 210 212 207 216 217 217 213 207 203 202 206 202 205 207 210 210 208 219 217 220 228 229 218 203 219 220 217 221 232 234 232 254 246 263 278 280 282 280 282 283 286 288 286 290 287 286 293 298 306 299 287 306 324 356 41 35 347 23 15 20 16 107 317 331 336 5 6 8
211 213 213 212 213 214 212 212 216 212 210 212 210 211 214 214 211 211 215 218 219 219 217 213 210 206 202 206 201 200 205 207 207 207 214 218 218 224 230 220 212 214 222 223 229 222 230 241 258 252 243 255 267 269 273 275 286 289 290 291 289 284 287 288 298 302 292 321 340 13 21 39 48 29 32 31 17 28 8 151 215 218 122 24 14
215 215 216 215 216 216 215 207 215 216 213 212 212 212 215 217 216 216 216 218 221 223 223 219 213 211 208 204 198 202 202 204 204 201 211 209 216 222 228 219 211 215 221 221 222 219 221 231 253 263 253 250 268 280 284 289 290 288 286 287 285 281 284 291 305 302 322 357 20 12 46 56 58 50 42 27 33 15 13 4 15 16 72 81 24
218 217 216 216 217 217 215 211 211 218 218 215 211 211 211 212 215 215 220 215 214 218 221 226 227 226 218 206 202 205 202 201 200 201 206 210 214 218 219 215 216 215 208 214 220 227 229 233 235 248 257 247 241 258 259 265 279 282 283 282 273 275 274 294 309 305 290 101 60 51 69 69 66 69 56 31 30 17 13 15 18 17 13 54 81
220 218 217 217 217 216 214 218 213 213 215 215 213 206 206 210 214 216 217 215 210 208 212 215 222 226 226 225 214 207 207 201 201 198 203 207 214 219 221 221 216 217 223 221 223 234 242 239 245 237 246 259 259 244 245 250 275 279 262 282 293 279 277 271 260 191 117 98 90 63 57 70 65 49 32 17 20 18 19 23 16 14 17 16 46
218 217 218 217 217 216 216 216 214 212 213 214 212 210 210 210 209 216 215 213 210 206 211 210 214 218 224 224 224 211 205 204 201 201 204 207 209 212 214 217 210 215 222 233 228 234 218 213 225 249 231 254 261 254 237 229 248 258 296 307 287 255 108 284 200 129 135 117 106 65 59 65 47 30 12 359 14 14 28 19 18 21 24 25 31
219 218 220 217 216 215 216 214 214 213 213 212 212 212 212 214 213 216 211 221 220 213 207 206 203 213 214 218 221 214 207 205 199 198 203 204 212 213 210 212 210 211 212 227 235 232 228 222 223 242 252 235 258 261 233 228 266 1 225 264 235 278 177 170 191 272 103 121 138 86 59 72 63 23 358 3 11 18 25 22 25 30 30 32 34
218 222 220 217 216 217 217 216 217 214 212 211 211 214 213 216 217 222 221 221 217 213 211 209 210 212 219 213 220 221 216 214 198 198 205 210 209 212 214 226 227 216 226 240 234 234 232 233 226 227 251 260 228 236 231 224 232 214 249 213 337 274 282 188 207 243 72 134 116 45 62 38 44 21 350 14 11 17 22 29 33 38 36 39 37
212 214 213 212 213 214 214 213 214 215 214 208 206 211 214 216 217 221 227 225 222 221 215 213 208 209 212 213 218 212 214 216 213 211 204 215 222 218 216 222 227 218 212 236 237 235 234 234 228 224 228 238 248 245 212 213 221 214 243 203 222 247 269 42 289 270 167 195 188 290 12 359 353 349 0 19 11 26 29 34 39 46 46 46 44
213 214 209 210 211 213 212 211 212 212 210 210 210 207 210 213 212 214 216 219 223 211 210 208 205 211 211 206 205 202 207 212 215 216 200 204 217 222 224 223 217 220 224 231 236 235 233 235 234 235 232 230 246 252 245 197 221 222 227 260 328 303 322 127 328 293 276 260 235 208 293 331 313 342 16 12 18 20 34 40 43 55 52 47 46
218 212 207 210 210 213 210 207 207 207 207 207 207 207 211 211 212 210 211 213 218 220 210 206 207 211 208 207 204 198 203 210 215 219 218 203 205 215 220 220 219 215 222 229 233 234 234 233 229 225 226 224 213 225 229 226 178 236 230 245 287 43 128 161 225 279 302 32 187 162 150 141 310 332 51 27 24 16 42 48 52 58 61 54 54
215 205 209 211 210 211 208 206 208 209 206 203 205 209 211 213 215 217 218 221 220 223 205 210 211 209 207 208 201 201 201 212 214 212 214 213 207 201 208 216 212 221 203 195 214 227 226 228 222 215 214 199 196 208 219 193 195 206 185 207 212 195 144 212 227 241 273 300 311 1 121 49 345 120 116 72 40 35 39 57 56 57 70 68 61
212 207 211 213 215 218 216 214 213 210 210 206 211 210 215 214 216 218 220 223 224 223 219 214 213 210 212 203 199 199 202 208 212 211 210 213 205 210 213 211 210 218 214 218 224 222 215 213 202 205 202 200 195 210 211 194 199 194 153 192 187 176 156 171 179 174 178 233 280 309 328 356 21 120 81 79 40 41 48 62 66 67 82 84 63
220 216 216 213 213 213 215 216 218 214 211 210 214 212 215 217 218 219 221 223 219 219 216 219 216 206 209 201 199 202 203 205 208 210 211 208 205 205 211 215 209 212 215 222 219 216 212 212 200 191 193 191 194 197 203 187 193 196 194 185 180 156 148 146 159 168 176 222 272 299 328 327 324 4 17 27 18 31 42 53 66 72 76 74 53
219 220 223 220 217 215 216 217 221 219 216 215 215 216 214 216 220 221 222 224 219 216 214 219 218 204 205 200 200 203 201 204 201 204 206 205 204 200 204 210 216 208 197 204 205 203 197 192 192 189 189 188 186 189 192 194 190 198 199 193 204 191 200 195 175 177 175 183 225 261 275 270 280 300 23 3 0 15 32 55 55 75 80 67 50